Weather in Sizran

Russia / Samara Oblast     53°09′20″N   48°28′28″E
temp.,
°C
wind,
m/s
gust,
m/s
humid.,
%
clouds,
%
prec.,
mm/h
press.,
hPa
HPBL,
m
2 march, tue
tue201:00−15sw349537 0.0 102061
04:00−12sw4109368 0.0 1017269
07:00−7sw71494100 0.2 1013560
10:00−4wsw81491100 1.4 1010723
13:000wsw81389100 0.1 1006907
16:000wsw81499100 0.4 1004822
19:00+1w4997100 0.3 1003431
22:00−2wnw4893100 0.5 1004203
3 march, wed
wed301:00−5wnw349263 0.0 100369
04:00−7wnw349331 0.0 100452
07:00−9wnw349317 0.0 100461
10:00−5wnw499219 0.0 1005419
13:00−3nw588687 0.0 1006776
16:00−4nw698391 0.1 1006922
19:00−7nw4118992 0.0 1008404
22:00−9nw5128861 0.0 1010308
4 march, thu
thu401:00−10wnw47890 0.0 1010124
04:00−11w47931 0.0 1011127
07:00−10w512932 0.0 1011235
10:00−5wsw6138927 0.0 1011474
13:00−2wsw7128696 0.0 1008853
16:00−1sw9148898 0.0 1007769
19:00−1sw81688100 0.0 1005790
22:00−1sw81885100 0.0 1004820
5 march, fri
fri501:00−2wsw71783100 0.0 1003696
04:00−2sw71586100 0.0 1002564
07:00−1sw61390100 0.0 1003490
10:00+1sw61295100 0.0 1005574
13:00+1w48100100 0.6 1005349
16:00−1n3598100 1.2 1007363
19:00−3n1292100 0.1 100923
22:00−4ese1193100 0.3 101021
6 march, sat
sat601:00−3e4797100 1.1 1008240
04:00−2se3799100 4.8 1004219
07:00+1sw71499100 2.3 1001527
10:00+1sw614100100 3.4 1000496
13:00−4nw61092100 0.8 1001430
16:00−5nw61085100 0.8 1004735
19:00−8nw349090 0.0 100772
22:00−11wnw349382 0.0 101083